TimePDT,TemperatureF,Dew PointF,Humidity,Sea Level PressureIn,VisibilityMPH,Wind Direction,Wind SpeedMPH,Gust SpeedMPH,PrecipitationIn,Events,Conditions,WindDirDegrees,DateUTC
12:55 AM,57.0,52.0,83,29.91,9.0,West,3.5,-,N/A,,Clear,260,2013-10-04 07:55:00
1:55 AM,55.0,51.1,86,29.92,8.0,Calm,Calm,-,N/A,,Clear,0,2013-10-04 08:55:00
2:55 AM,55.9,52.0,87,29.91,8.0,Calm,Calm,-,N/A,,Clear,0,2013-10-04 09:55:00
3:55 AM,54.0,50.0,86,29.91,8.0,NE,3.5,-,N/A,,Clear,50,2013-10-04 10:55:00
4:55 AM,54.0,50.0,86,29.92,8.0,Calm,Calm,-,N/A,,Clear,0,2013-10-04 11:55:00
5:55 AM,52.0,48.0,86,29.93,8.0,Calm,Calm,-,N/A,,Clear,0,2013-10-04 12:55:00
6:55 AM,53.1,48.9,86,29.94,7.0,Calm,Calm,-,N/A,,Clear,0,2013-10-04 13:55:00
7:55 AM,71.1,19.9,14,29.96,6.0,ENE,17.3,25.3,N/A,,Haze,70,2013-10-04 14:55:00
8:55 AM,75.0,16.0,11,29.97,5.0,ENE,31.1,41.4,N/A,,Haze,60,2013-10-04 15:55:00
9:55 AM,78.1,16.0,10,29.99,6.0,ENE,31.1,41.4,N/A,,Haze,60,2013-10-04 16:55:00
10:55 AM,80.1,16.0,9,29.99,6.0,ENE,26.5,42.6,N/A,,Blowing Sand,60,2013-10-04 17:55:00
11:55 AM,82.9,16.0,8,30.00,8.0,ENE,34.5,42.6,N/A,,Blowing Sand,70,2013-10-04 18:55:00
12:55 PM,84.0,16.0,8,29.99,10.0,ENE,31.1,39.1,N/A,,Clear,60,2013-10-04 19:55:00
1:55 PM,86.0,15.1,7,29.97,10.0,ENE,25.3,42.6,N/A,,Clear,60,2013-10-04 20:55:00
2:55 PM,86.0,12.9,7,29.96,10.0,ENE,31.1,41.4,N/A,,Blowing Sand,60,2013-10-04 21:55:00
3:55 PM,86.0,10.0,6,29.96,10.0,NE,28.8,44.9,N/A,,Clear,50,2013-10-04 22:55:00
4:55 PM,84.9,10.0,6,29.97,10.0,ENE,26.5,35.7,N/A,,Clear,60,2013-10-04 23:55:00
5:55 PM,82.9,10.9,7,29.98,10.0,NE,17.3,28.8,N/A,,Clear,50,2013-10-05 00:55:00
6:55 PM,80.1,12.0,8,30.00,10.0,ENE,23.0,32.2,N/A,,Clear,60,2013-10-05 01:55:00
7:55 PM,79.0,12.9,8,30.01,10.0,ENE,20.7,29.9,N/A,,Clear,60,2013-10-05 02:55:00
8:55 PM,77.0,15.1,10,30.03,10.0,NE,17.3,23.0,N/A,,Clear,50,2013-10-05 03:55:00
9:55 PM,75.9,16.0,10,30.04,10.0,ENE,13.8,21.9,N/A,,Clear,60,2013-10-05 04:55:00
10:55 PM,77.0,16.0,10,30.04,10.0,ENE,15.0,21.9,N/A,,Clear,60,2013-10-05 05:55:00
11:55 PM,75.9,17.1,11,30.06,10.0,ENE,13.8,-,N/A,,Clear,60,2013-10-05 06:55:00